Aiken, SC

5:21 AM EDT on April 25, 2018 (GMT -0400)
Aiken Municipal

Weather History for KAIK - January, 2014

Change the Weather History Date:

Thursday, January 30, 2014

  Actual Average Record
Temperature  
Mean Temperature 26 °F -  
Max Temperature 37 °F 60 °F 78 °F (2013)
Min Temperature 15 °F 33 °F 15 °F (2014)
Degree Days  
Heating Degree Days 39    
Moisture  
Dew Point 18 °F    
Average Humidity 74    
Maximum Humidity 100    
Minimum Humidity 41    
Precipitation  
Precipitation 0.00 in - - ()
Sea Level Pressure  
Sea Level Pressure 30.32 in    
Wind  
Wind Speed 2 mph (ENE)    
Max Wind Speed 13 mph    
Max Gust Speed 16 mph    
Visibility 10 miles    
Events      
Averages and records for this station are not official NWS values.
T = Trace of Precipitation, MM = Missing Value Source: NWS Daily Summary

Daily Weather History Graph

Daily Weather History Graph

Search for Another Location

Airport or City:

Astronomy

Jan. 30, 2014 Rise Set
Actual Time 7:24 AM EST 5:56 PM EST
Civil Twilight 6:58 AM EST 6:22 PM EST
Nautical Twilight 6:28 AM EST 6:52 PM EST
Astronomical Twilight 5:58 AM EST 7:21 PM EST
Moon 6:51 AM EST (1/30) 6:03 PM EST (1/30)
Length of Visible Light 11h 24m
Length of Day
10h 31m
Waning Crescent, 0% of the Moon is Illuminated
Jan 30
Waning Crescent
Jan 30
New
Feb 6
First Quarter
Feb 14
Full
Feb 22
Last Quarter

Hourly Weather History & Observations

Time (EST) Temp. Windchill Dew Point Humidity Pressure Visibility Wind Dir Wind Speed Gust Speed Precip Events Conditions
12:15 AM 21.2 °F - 21.2 °F 100% 30.37 in 10.0 mi Calm Calm - N/A   Clear
12:35 AM 19.4 °F - 19.4 °F 100% 30.38 in 10.0 mi Calm Calm - N/A   Clear
12:55 AM 21.2 °F - 21.2 °F 100% 30.38 in 10.0 mi Calm Calm - N/A   Clear
1:15 AM 19.4 °F - 19.4 °F 100% 30.37 in 10.0 mi Calm Calm - N/A   Clear
1:35 AM 19.4 °F - 19.4 °F 100% 30.37 in 10.0 mi Calm Calm - N/A   Clear
1:55 AM 17.6 °F - 17.6 °F 100% 30.37 in 10.0 mi Calm Calm - N/A   Clear
2:15 AM 19.4 °F - 19.4 °F 100% 30.37 in 10.0 mi Calm Calm - N/A   Clear
2:35 AM 17.6 °F - 17.6 °F 100% 30.37 in 10.0 mi Calm Calm - N/A   Clear
2:55 AM 17.6 °F - 17.6 °F 100% 30.37 in 10.0 mi Calm Calm - N/A   Clear
3:15 AM 17.6 °F - 17.6 °F 100% 30.36 in 10.0 mi Calm Calm - N/A   Clear
3:35 AM 15.8 °F - 15.8 °F 100% 30.35 in 10.0 mi Calm Calm - N/A   Clear
3:55 AM 17.6 °F - 17.6 °F 100% 30.36 in 10.0 mi Calm Calm - N/A   Clear
4:15 AM 17.6 °F - 17.6 °F 100% 30.35 in 10.0 mi Calm Calm - N/A   Clear
4:35 AM 15.8 °F - 15.8 °F 100% 30.35 in 10.0 mi Calm Calm - N/A   Clear
4:55 AM 15.8 °F - 15.8 °F 100% 30.36 in 10.0 mi Calm Calm - N/A   Clear
5:15 AM 19.4 °F - 17.6 °F 93% 30.36 in 10.0 mi Calm Calm - N/A   Clear
5:35 AM 15.8 °F - 14.0 °F 93% 30.36 in 10.0 mi Calm Calm - N/A   Clear
5:55 AM 17.6 °F - 14.0 °F 86% 30.35 in 10.0 mi Calm Calm - N/A   Clear
6:15 AM 15.8 °F - 14.0 °F 93% 30.36 in 10.0 mi Calm Calm - N/A   Clear
6:35 AM 17.6 °F - 14.0 °F 86% 30.37 in 10.0 mi Calm Calm - N/A   Clear
6:55 AM 17.6 °F - 14.0 °F 86% 30.37 in 10.0 mi Calm Calm - N/A   Clear
7:15 AM 15.8 °F - 14.0 °F 93% 30.37 in 10.0 mi Calm Calm - N/A   Clear
7:35 AM 17.6 °F - 15.8 °F 93% 30.38 in 10.0 mi Calm Calm - N/A   Clear
7:55 AM 17.6 °F - 14.0 °F 86% 30.38 in 10.0 mi Calm Calm - N/A   Clear
8:15 AM 19.4 °F - 14.0 °F 80% 30.38 in 10.0 mi Calm Calm - N/A   Clear
8:35 AM 21.2 °F - 15.8 °F 80% 30.39 in 10.0 mi Calm Calm - N/A   Clear
8:55 AM 23.0 °F 13.9 °F 17.6 °F 80% 30.39 in 10.0 mi NE 8.1 mph - N/A   Clear
9:15 AM 24.8 °F 17.9 °F 17.6 °F 74% 30.39 in 10.0 mi NE 5.8 mph - N/A   Clear
9:35 AM 26.6 °F 18.2 °F 17.6 °F 69% 30.39 in 10.0 mi NE 8.1 mph - N/A   Clear
9:55 AM 28.4 °F 20.4 °F 17.6 °F 64% 30.40 in 10.0 mi NE 8.1 mph - N/A   Clear
10:15 AM 30.2 °F 21.9 °F 19.4 °F 64% 30.39 in 10.0 mi NE 9.2 mph - N/A   Clear
10:35 AM 30.2 °F 21.9 °F 15.8 °F 55% 30.39 in 10.0 mi ENE 9.2 mph 16.1 mph N/A   Clear
10:55 AM 32.0 °F 22.5 °F 17.6 °F 55% 30.39 in 10.0 mi NE 12.7 mph - N/A   Clear
11:15 AM 32.0 °F 23.6 °F 17.6 °F 55% 30.40 in 10.0 mi NE 10.4 mph - N/A   Clear
11:35 AM 32.0 °F 23.6 °F 17.6 °F 55% 30.39 in 10.0 mi ENE 10.4 mph - N/A   Clear
11:55 AM 32.0 °F 23.0 °F 17.6 °F 55% 30.38 in 10.0 mi NE 11.5 mph - N/A   Clear
12:15 PM 33.8 °F 26.4 °F 17.6 °F 52% 30.37 in 10.0 mi East 9.2 mph - N/A   Clear
12:35 PM 33.8 °F 26.4 °F 17.6 °F 52% 30.36 in 10.0 mi NE 9.2 mph - N/A   Clear
12:55 PM 35.6 °F 28.6 °F 19.4 °F 52% 30.34 in 10.0 mi NNE 9.2 mph - N/A   Clear
1:15 PM 35.6 °F 30.7 °F 15.8 °F 44% 30.33 in 10.0 mi NNE 5.8 mph - N/A   Clear
1:35 PM 37.4 °F 34.9 °F 17.6 °F 45% 30.31 in 10.0 mi East 3.5 mph - N/A   Clear
1:55 PM 37.4 °F 32.8 °F 17.6 °F 45% 30.30 in 10.0 mi NE 5.8 mph - N/A   Clear
2:15 PM 37.4 °F - 15.8 °F 41% 30.30 in 10.0 mi Calm Calm - N/A   Clear
2:35 PM 37.4 °F 34.9 °F 17.6 °F 45% 30.30 in 10.0 mi NE 3.5 mph - N/A   Clear
2:55 PM 37.4 °F 33.8 °F 17.6 °F 45% 30.30 in 10.0 mi ENE 4.6 mph - N/A   Clear
3:15 PM 37.4 °F - 17.6 °F 45% 30.29 in 10.0 mi Calm Calm - N/A   Clear
3:35 PM 37.4 °F - 15.8 °F 41% 30.28 in 10.0 mi Calm Calm - N/A   Clear
3:55 PM 37.4 °F - 17.6 °F 45% 30.27 in 10.0 mi Calm Calm - N/A   Clear
4:15 PM 37.4 °F 33.8 °F 17.6 °F 45% 30.26 in 10.0 mi ENE 4.6 mph - N/A   Clear
4:35 PM 37.4 °F - 17.6 °F 45% 30.26 in 10.0 mi Calm Calm - N/A   Clear
4:55 PM 37.4 °F 33.8 °F 17.6 °F 45% 30.25 in 10.0 mi East 4.6 mph - N/A   Clear
5:15 PM 37.4 °F - 17.6 °F 45% 30.27 in 10.0 mi Calm Calm - N/A   Clear
5:35 PM 35.6 °F 32.8 °F 17.6 °F 48% 30.25 in 10.0 mi East 3.5 mph - N/A   Clear
5:55 PM 35.6 °F - 17.6 °F 48% 30.25 in 10.0 mi Calm Calm - N/A   Clear
6:15 PM 32.0 °F - 17.6 °F 55% 30.25 in 10.0 mi Calm Calm - N/A   Clear
6:35 PM 32.0 °F - 19.4 °F 60% 30.25 in 10.0 mi Calm Calm - N/A   Clear
6:55 PM 30.2 °F 25.4 °F 21.2 °F 69% 30.25 in 10.0 mi NNW 4.6 mph - N/A   Clear
7:15 PM 30.2 °F - 21.2 °F 69% 30.25 in 10.0 mi Calm Calm - N/A   Clear
7:35 PM 30.2 °F - 19.4 °F 64% 30.29 in 10.0 mi Calm Calm - N/A   Clear
7:55 PM 30.2 °F 26.7 °F 19.4 °F 64% 30.26 in 10.0 mi ESE 3.5 mph - N/A   Clear
8:15 PM 26.6 °F - 19.4 °F 74% 30.26 in 10.0 mi Calm Calm - N/A   Clear
8:35 PM 26.6 °F - 19.4 °F 74% 30.25 in 10.0 mi Calm Calm - N/A   Clear
8:55 PM 26.6 °F - 21.2 °F 80% 30.25 in 10.0 mi Calm Calm - N/A   Clear
9:15 PM 24.8 °F - 21.2 °F 86% 30.26 in 10.0 mi Calm Calm - N/A   Clear
9:35 PM 24.8 °F - 21.2 °F 86% 30.25 in 10.0 mi Calm Calm - N/A   Clear
9:55 PM 23.0 °F - 19.4 °F 86% 30.27 in 10.0 mi Calm Calm - N/A   Clear
10:15 PM 23.0 °F - 19.4 °F 86% 30.27 in 10.0 mi Calm Calm - N/A   Clear
10:35 PM 24.8 °F - 19.4 °F 80% 30.26 in 10.0 mi Calm Calm - N/A   Clear
10:55 PM 24.8 °F - 17.6 °F 74% 30.26 in 10.0 mi Calm Calm - N/A   Clear
11:15 PM 21.2 °F - 17.6 °F 86% 30.26 in 10.0 mi Calm Calm - N/A   Clear
11:35 PM 21.2 °F - 19.4 °F 93% 30.26 in 10.0 mi Calm Calm - N/A   Clear
11:55 PM 21.2 °F - 19.4 °F 93% 30.25 in 10.0 mi Calm Calm - N/A   Clear